![]() |
EMODnet Physics ERDDAP
Easier access to scientific data |
log in|
Brought to you by EMODnet Physics |
| Dataset Title: | NDBC - Collection of dew point temperature (DEWT) TimeSeries - IN SITU MultiPointTimeSeriesObservation
|
| Institution: | NDBC (Dataset ID: TS_DEWT_NDBC) |
| Information: | Summary
| License
| FGDC
| ISO 19115
| Metadata
| Background
| Subset
| Data Access Form
| Make a graph
|
| Name | Last modified | Size | Description | |
|---|---|---|---|---|
| Parent Directory | - | - | ||
| FILA2_TS_DEWT_012004.nc | 27-Oct-2024 09:36 | 429295 | ||
| FILA2_TS_DEWT_012005.nc | 27-Oct-2024 09:36 | 429288 | ||
| FILA2_TS_DEWT_012006.nc | 27-Oct-2024 09:37 | 429283 | ||
| FILA2_TS_DEWT_012007.nc | 27-Oct-2024 09:37 | 429288 | ||
| FILA2_TS_DEWT_012008.nc | 27-Oct-2024 09:37 | 429292 | ||
| FILA2_TS_DEWT_012009.nc | 27-Oct-2024 09:37 | 429289 | ||
| FILA2_TS_DEWT_012010.nc | 27-Oct-2024 09:37 | 429290 | ||
| FILA2_TS_DEWT_012011.nc | 27-Oct-2024 09:37 | 429295 | ||
| FILA2_TS_DEWT_012012.nc | 27-Oct-2024 09:37 | 429497 | ||
| FILA2_TS_DEWT_012013.nc | 27-Oct-2024 09:37 | 429494 | ||
| FILA2_TS_DEWT_012014.nc | 27-Oct-2024 09:37 | 429491 | ||
| FILA2_TS_DEWT_012015.nc | 27-Oct-2024 09:37 | 429495 | ||
| FILA2_TS_DEWT_012016.nc | 27-Oct-2024 09:37 | 429493 | ||
| FILA2_TS_DEWT_012017.nc | 27-Oct-2024 09:37 | 429492 | ||
| FILA2_TS_DEWT_012018.nc | 27-Oct-2024 09:37 | 429493 | ||
| FILA2_TS_DEWT_012019.nc | 27-Oct-2024 09:37 | 429497 | ||
| FILA2_TS_DEWT_012020.nc | 27-Oct-2024 09:37 | 429491 | ||
| FILA2_TS_DEWT_012021.nc | 27-Oct-2024 09:38 | 429493 | ||
| FILA2_TS_DEWT_012022.nc | 27-Oct-2024 09:38 | 429468 | ||
| FILA2_TS_DEWT_012023.nc | 27-Oct-2024 09:38 | 1110313 | ||
| FILA2_TS_DEWT_012024.nc | 27-Oct-2024 09:38 | 1115256 | ||
| FILA2_TS_DEWT_012025.nc | 07-Feb-2025 13:04 | 995716 | ||
| FILA2_TS_DEWT_012026.nc | 02-Feb-2026 19:23 | 1111850 | ||
| FILA2_TS_DEWT_022005.nc | 27-Oct-2024 09:38 | 993103 | ||
| FILA2_TS_DEWT_022006.nc | 27-Oct-2024 09:38 | 1109962 | ||
| FILA2_TS_DEWT_022007.nc | 27-Oct-2024 09:38 | 994924 | ||
| FILA2_TS_DEWT_022008.nc | 27-Oct-2024 09:38 | 1104920 | ||
| FILA2_TS_DEWT_022009.nc | 27-Oct-2024 09:38 | 5501993 | ||
| FILA2_TS_DEWT_022010.nc | 27-Oct-2024 09:38 | 5413761 | ||
| FILA2_TS_DEWT_022011.nc | 27-Oct-2024 09:38 | 429503 | ||
| FILA2_TS_DEWT_022012.nc | 27-Oct-2024 09:38 | 429601 | ||
| FILA2_TS_DEWT_022013.nc | 27-Oct-2024 09:38 | 428147 | ||
| FILA2_TS_DEWT_022014.nc | 27-Oct-2024 09:38 | 429604 | ||
| FILA2_TS_DEWT_022015.nc | 27-Oct-2024 09:38 | 429606 | ||
| FILA2_TS_DEWT_022016.nc | 27-Oct-2024 09:38 | 429608 | ||
| FILA2_TS_DEWT_022017.nc | 27-Oct-2024 09:39 | 429613 | ||
| FILA2_TS_DEWT_022018.nc | 27-Oct-2024 09:39 | 429594 | ||
| FILA2_TS_DEWT_022019.nc | 27-Oct-2024 09:39 | 433079 | ||
| FILA2_TS_DEWT_022020.nc | 27-Oct-2024 09:39 | 432055 | ||
| FILA2_TS_DEWT_022021.nc | 27-Oct-2024 09:39 | 429614 | ||
| FILA2_TS_DEWT_022022.nc | 27-Oct-2024 09:39 | 429613 | ||
| FILA2_TS_DEWT_022023.nc | 27-Oct-2024 09:39 | 429618 | ||
| FILA2_TS_DEWT_022024.nc | 16-Sep-2024 16:51 | 429618 | ||
| FILA2_TS_DEWT_022025.nc | 01-Mar-2025 07:34 | 429610 | ||
| FILA2_TS_DEWT_022026.nc | 27-Feb-2026 06:41 | 429619 | ||
| FILA2_TS_DEWT_032004.nc | 27-Oct-2024 09:39 | 429622 | ||
| FILA2_TS_DEWT_032005.nc | 27-Oct-2024 09:39 | 429611 | ||
| FILA2_TS_DEWT_032006.nc | 27-Oct-2024 09:39 | 429617 | ||
| FILA2_TS_DEWT_032007.nc | 27-Oct-2024 09:39 | 429618 | ||
| FILA2_TS_DEWT_032008.nc | 27-Oct-2024 09:39 | 429618 | ||
| FILA2_TS_DEWT_032009.nc | 27-Oct-2024 09:39 | 429612 | ||
| FILA2_TS_DEWT_032010.nc | 27-Oct-2024 09:39 | 429836 | ||
| FILA2_TS_DEWT_032011.nc | 27-Oct-2024 09:39 | 429834 | ||
| FILA2_TS_DEWT_032012.nc | 27-Oct-2024 09:39 | 429840 | ||
| FILA2_TS_DEWT_032013.nc | 27-Oct-2024 09:40 | 429835 | ||
| FILA2_TS_DEWT_032014.nc | 27-Oct-2024 09:40 | 429836 | ||
| FILA2_TS_DEWT_032015.nc | 27-Oct-2024 09:40 | 429837 | ||
| FILA2_TS_DEWT_032016.nc | 27-Oct-2024 09:40 | 429839 | ||
| FILA2_TS_DEWT_032017.nc | 27-Oct-2024 09:40 | 429834 | ||
| FILA2_TS_DEWT_032018.nc | 27-Oct-2024 09:40 | 429836 | ||
| FILA2_TS_DEWT_032019.nc | 27-Oct-2024 09:40 | 429839 | ||
| FILA2_TS_DEWT_032020.nc | 27-Oct-2024 09:40 | 427638 | ||
| FILA2_TS_DEWT_032021.nc | 27-Oct-2024 09:40 | 1265241 | ||
| FILA2_TS_DEWT_032022.nc | 27-Oct-2024 09:40 | 1269575 | ||
| FILA2_TS_DEWT_032023.nc | 27-Oct-2024 09:40 | 1144149 | ||
| FILA2_TS_DEWT_032025.nc | 02-Apr-2025 05:52 | 1261840 | ||
| FILA2_TS_DEWT_042004.nc | 27-Oct-2024 09:40 | 1247583 | ||
| FILA2_TS_DEWT_042005.nc | 27-Oct-2024 09:40 | 1144135 | ||
| FILA2_TS_DEWT_042006.nc | 27-Oct-2024 09:41 | 1243073 | ||
| FILA2_TS_DEWT_042007.nc | 27-Oct-2024 09:41 | 1143328 | ||
| FILA2_TS_DEWT_042008.nc | 27-Oct-2024 09:41 | 1261644 | ||
| FILA2_TS_DEWT_042009.nc | 27-Oct-2024 09:41 | 5502416 | ||
| FILA2_TS_DEWT_042010.nc | 27-Oct-2024 09:41 | 5043736 | ||
| FILA2_TS_DEWT_042011.nc | 27-Oct-2024 09:41 | 1143686 | ||
| FILA2_TS_DEWT_042012.nc | 27-Oct-2024 09:41 | 1264561 | ||
| FILA2_TS_DEWT_042013.nc | 27-Oct-2024 09:41 | 1021212 | ||
| FILA2_TS_DEWT_042014.nc | 27-Oct-2024 09:41 | 1026562 | ||
| FILA2_TS_DEWT_042015.nc | 27-Oct-2024 09:41 | 1006815 | ||
| FILA2_TS_DEWT_042016.nc | 27-Oct-2024 09:41 | 1262220 | ||
| FILA2_TS_DEWT_042017.nc | 27-Oct-2024 09:41 | 1112787 | ||
| FILA2_TS_DEWT_042018.nc | 27-Oct-2024 09:41 | 1115353 | ||
| FILA2_TS_DEWT_042019.nc | 27-Oct-2024 09:41 | 669992 | ||
| FILA2_TS_DEWT_042020.nc | 27-Oct-2024 09:41 | 1257841 | ||
| FILA2_TS_DEWT_042021.nc | 27-Oct-2024 09:41 | 1241359 | ||
| FILA2_TS_DEWT_042022.nc | 27-Oct-2024 09:41 | 1112517 | ||
| FILA2_TS_DEWT_042023.nc | 27-Oct-2024 09:41 | 1111963 | ||
| FILA2_TS_DEWT_042025.nc | 01-May-2025 05:32 | 1059326 | ||
| FILA2_TS_DEWT_052003.nc | 27-Oct-2024 09:41 | 637620 | ||
| FILA2_TS_DEWT_052004.nc | 27-Oct-2024 09:41 | 1106056 | ||
| FILA2_TS_DEWT_052005.nc | 27-Oct-2024 09:41 | 1260774 | ||
| FILA2_TS_DEWT_052006.nc | 27-Oct-2024 09:41 | 1163077 | ||
| FILA2_TS_DEWT_052007.nc | 27-Oct-2024 09:42 | 1256268 | ||
| FILA2_TS_DEWT_052008.nc | 27-Oct-2024 09:42 | 1261063 | ||
| FILA2_TS_DEWT_052009.nc | 27-Oct-2024 09:42 | 1258324 | ||
| FILA2_TS_DEWT_052010.nc | 27-Oct-2024 09:42 | 1106137 | ||
| FILA2_TS_DEWT_052011.nc | 27-Oct-2024 09:42 | 1110301 | ||
| FILA2_TS_DEWT_052012.nc | 27-Oct-2024 09:42 | 1111812 | ||
| FILA2_TS_DEWT_052013.nc | 27-Oct-2024 09:42 | 1262485 | ||
| FILA2_TS_DEWT_052014.nc | 27-Oct-2024 09:42 | 1262657 | ||
| FILA2_TS_DEWT_052015.nc | 27-Oct-2024 09:42 | 1266147 | ||
| FILA2_TS_DEWT_052016.nc | 27-Oct-2024 09:42 | 907687 | ||
| FILA2_TS_DEWT_052017.nc | 27-Oct-2024 09:42 | 419947 | ||
| FILA2_TS_DEWT_052018.nc | 27-Oct-2024 09:42 | 1105834 | ||
| FILA2_TS_DEWT_052019.nc | 27-Oct-2024 09:42 | 1108742 | ||
| FILA2_TS_DEWT_052020.nc | 27-Oct-2024 09:42 | 624148 | ||
| FILA2_TS_DEWT_052021.nc | 27-Oct-2024 09:42 | 1242056 | ||
| FILA2_TS_DEWT_052022.nc | 27-Oct-2024 09:43 | 1266981 | ||
| FILA2_TS_DEWT_052023.nc | 27-Oct-2024 09:43 | 426112 | ||
| FILA2_TS_DEWT_052025.nc | 01-Jun-2025 05:39 | 425849 | ||
| FILA2_TS_DEWT_062003.nc | 27-Oct-2024 09:43 | 426065 | ||
| FILA2_TS_DEWT_062004.nc | 27-Oct-2024 09:43 | 426060 | ||
| FILA2_TS_DEWT_062005.nc | 27-Oct-2024 09:43 | 426144 | ||
| FILA2_TS_DEWT_062006.nc | 27-Oct-2024 09:43 | 426026 | ||
| FILA2_TS_DEWT_062007.nc | 27-Oct-2024 09:43 | 425949 | ||
| FILA2_TS_DEWT_062008.nc | 27-Oct-2024 09:43 | 425330 | ||
| FILA2_TS_DEWT_062009.nc | 27-Oct-2024 09:43 | 425636 | ||
| FILA2_TS_DEWT_062010.nc | 27-Oct-2024 09:43 | 425423 | ||
| FILA2_TS_DEWT_062011.nc | 27-Oct-2024 09:43 | 425198 | ||
| FILA2_TS_DEWT_062012.nc | 27-Oct-2024 09:43 | 425038 | ||
| FILA2_TS_DEWT_062013.nc | 27-Oct-2024 09:43 | 425669 | ||
| FILA2_TS_DEWT_062014.nc | 27-Oct-2024 09:43 | 423282 | ||
| FILA2_TS_DEWT_062015.nc | 27-Oct-2024 09:43 | 423351 | ||
| FILA2_TS_DEWT_062017.nc | 27-Oct-2024 09:44 | 426116 | ||
| FILA2_TS_DEWT_062018.nc | 27-Oct-2024 09:44 | 425824 | ||
| FILA2_TS_DEWT_062019.nc | 27-Oct-2024 09:44 | 425143 | ||
| FILA2_TS_DEWT_062020.nc | 27-Oct-2024 09:44 | 426074 | ||
| FILA2_TS_DEWT_062021.nc | 27-Oct-2024 09:44 | 421779 | ||
| FILA2_TS_DEWT_062022.nc | 27-Oct-2024 09:44 | 425823 | ||
| FILA2_TS_DEWT_062023.nc | 27-Oct-2024 09:44 | 425638 | ||
| FILA2_TS_DEWT_062025.nc | 17-Jun-2025 04:39 | 425976 | ||
| FILA2_TS_DEWT_072003.nc | 27-Oct-2024 09:44 | 425818 | ||
| FILA2_TS_DEWT_072004.nc | 27-Oct-2024 09:44 | 425770 | ||
| FILA2_TS_DEWT_072005.nc | 27-Oct-2024 09:44 | 425902 | ||
| FILA2_TS_DEWT_072006.nc | 27-Oct-2024 09:44 | 420153 | ||
| FILA2_TS_DEWT_072007.nc | 27-Oct-2024 09:44 | 426117 | ||
| FILA2_TS_DEWT_072008.nc | 27-Oct-2024 09:44 | 425993 | ||
| FILA2_TS_DEWT_072009.nc | 27-Oct-2024 09:45 | 426028 | ||
| FILA2_TS_DEWT_072010.nc | 27-Oct-2024 09:45 | 426056 | ||
| FILA2_TS_DEWT_072011.nc | 27-Oct-2024 09:45 | 426076 | ||
| FILA2_TS_DEWT_072012.nc | 27-Oct-2024 09:45 | 426080 | ||
| FILA2_TS_DEWT_072013.nc | 27-Oct-2024 09:45 | 425922 | ||
| FILA2_TS_DEWT_072014.nc | 27-Oct-2024 09:45 | 425823 | ||
| FILA2_TS_DEWT_072015.nc | 27-Oct-2024 09:45 | 425895 | ||
| FILA2_TS_DEWT_072016.nc | 27-Oct-2024 09:45 | 425854 | ||
| FILA2_TS_DEWT_072017.nc | 27-Oct-2024 09:45 | 425800 | ||
| FILA2_TS_DEWT_072018.nc | 27-Oct-2024 09:45 | 425877 | ||
| FILA2_TS_DEWT_072019.nc | 27-Oct-2024 09:45 | 424322 | ||
| FILA2_TS_DEWT_072020.nc | 27-Oct-2024 09:45 | 426046 | ||
| FILA2_TS_DEWT_072021.nc | 27-Oct-2024 09:45 | 426145 | ||
| FILA2_TS_DEWT_072022.nc | 27-Oct-2024 09:45 | 426100 | ||
| FILA2_TS_DEWT_072023.nc | 27-Oct-2024 09:45 | 426068 | ||
| FILA2_TS_DEWT_072025.nc | 16-Aug-2025 08:07 | 426094 | ||
| FILA2_TS_DEWT_082003.nc | 27-Oct-2024 09:45 | 426124 | ||
| FILA2_TS_DEWT_082004.nc | 27-Oct-2024 09:45 | 426110 | ||
| FILA2_TS_DEWT_082005.nc | 27-Oct-2024 09:45 | 425875 | ||
| FILA2_TS_DEWT_082006.nc | 27-Oct-2024 09:45 | 426069 | ||
| FILA2_TS_DEWT_082007.nc | 27-Oct-2024 09:45 | 420490 | ||
| FILA2_TS_DEWT_082008.nc | 27-Oct-2024 09:46 | 425901 | ||
| FILA2_TS_DEWT_082009.nc | 27-Oct-2024 09:46 | 426079 | ||
| FILA2_TS_DEWT_082010.nc | 27-Oct-2024 09:46 | 426126 | ||
| FILA2_TS_DEWT_082011.nc | 27-Oct-2024 09:46 | 425060 | ||
| FILA2_TS_DEWT_082012.nc | 27-Oct-2024 09:46 | 424280 | ||
| FILA2_TS_DEWT_082013.nc | 27-Oct-2024 09:46 | 425901 | ||
| FILA2_TS_DEWT_082014.nc | 27-Oct-2024 09:46 | 424089 | ||
| FILA2_TS_DEWT_082015.nc | 27-Oct-2024 09:46 | 425076 | ||
| FILA2_TS_DEWT_082016.nc | 27-Oct-2024 09:46 | 425562 | ||
| FILA2_TS_DEWT_082017.nc | 27-Oct-2024 09:46 | 425825 | ||
| FILA2_TS_DEWT_082018.nc | 27-Oct-2024 09:46 | 425734 | ||
| FILA2_TS_DEWT_082019.nc | 27-Oct-2024 09:46 | 425703 | ||
| FILA2_TS_DEWT_082020.nc | 27-Oct-2024 09:46 | 426141 | ||
| FILA2_TS_DEWT_082021.nc | 27-Oct-2024 09:46 | 425885 | ||
| FILA2_TS_DEWT_082022.nc | 27-Oct-2024 09:46 | 425711 | ||
| FILA2_TS_DEWT_082023.nc | 27-Oct-2024 09:46 | 426102 | ||
| FILA2_TS_DEWT_082025.nc | 01-Sep-2025 08:01 | 426125 | ||
| FILA2_TS_DEWT_092003.nc | 27-Oct-2024 09:47 | 425845 | ||
| FILA2_TS_DEWT_092004.nc | 27-Oct-2024 09:47 | 425871 | ||
| FILA2_TS_DEWT_092005.nc | 27-Oct-2024 09:47 | 425896 | ||
| FILA2_TS_DEWT_092006.nc | 27-Oct-2024 09:47 | 425904 | ||
| FILA2_TS_DEWT_092007.nc | 27-Oct-2024 09:47 | 425851 | ||
| FILA2_TS_DEWT_092008.nc | 27-Oct-2024 09:47 | 425841 | ||
| FILA2_TS_DEWT_092009.nc | 27-Oct-2024 09:47 | 425902 | ||
| FILA2_TS_DEWT_092010.nc | 27-Oct-2024 09:47 | 425853 | ||
| FILA2_TS_DEWT_092011.nc | 27-Oct-2024 09:47 | 425897 | ||
| FILA2_TS_DEWT_092012.nc | 27-Oct-2024 09:47 | 426069 | ||
| FILA2_TS_DEWT_092013.nc | 27-Oct-2024 09:47 | 424961 | ||
| FILA2_TS_DEWT_092014.nc | 27-Oct-2024 09:47 | 426062 | ||
| FILA2_TS_DEWT_092015.nc | 27-Oct-2024 09:47 | 426121 | ||
| FILA2_TS_DEWT_092016.nc | 27-Oct-2024 09:47 | 426123 | ||
| FILA2_TS_DEWT_092017.nc | 27-Oct-2024 09:47 | 426126 | ||
| FILA2_TS_DEWT_092018.nc | 27-Oct-2024 09:47 | 421049 | ||
| FILA2_TS_DEWT_092019.nc | 27-Oct-2024 09:47 | 422789 | ||
| FILA2_TS_DEWT_092020.nc | 27-Oct-2024 09:47 | 426065 | ||
| FILA2_TS_DEWT_092021.nc | 27-Oct-2024 09:48 | 425020 | ||
| FILA2_TS_DEWT_092022.nc | 27-Oct-2024 09:48 | 422148 | ||
| FILA2_TS_DEWT_092023.nc | 27-Oct-2024 09:48 | 425906 | ||
| FILA2_TS_DEWT_092025.nc | 01-Oct-2025 08:10 | 420964 | ||
| FILA2_TS_DEWT_102003.nc | 27-Oct-2024 09:48 | 426103 | ||
| FILA2_TS_DEWT_102004.nc | 27-Oct-2024 09:48 | 425242 | ||
| FILA2_TS_DEWT_102005.nc | 27-Oct-2024 09:48 | 425903 | ||
| FILA2_TS_DEWT_102006.nc | 27-Oct-2024 09:48 | 425850 | ||
| FILA2_TS_DEWT_102007.nc | 27-Oct-2024 09:48 | 425022 | ||
| FILA2_TS_DEWT_102008.nc | 27-Oct-2024 09:48 | 426100 | ||
| FILA2_TS_DEWT_102009.nc | 27-Oct-2024 09:48 | 426048 | ||
| FILA2_TS_DEWT_102010.nc | 27-Oct-2024 09:48 | 610216 | ||
| FILA2_TS_DEWT_102011.nc | 27-Oct-2024 09:48 | 685116 | ||
| FILA2_TS_DEWT_102012.nc | 27-Oct-2024 09:48 | 1007053 | ||
| FILA2_TS_DEWT_102013.nc | 27-Oct-2024 09:48 | 1003907 | ||
| FILA2_TS_DEWT_102014.nc | 27-Oct-2024 09:48 | 631643 | ||
| FILA2_TS_DEWT_102015.nc | 27-Oct-2024 09:48 | 614313 | ||
| FILA2_TS_DEWT_102016.nc | 27-Oct-2024 09:48 | 983769 | ||
| FILA2_TS_DEWT_102017.nc | 27-Oct-2024 09:48 | 1006991 | ||
| FILA2_TS_DEWT_102018.nc | 27-Oct-2024 09:48 | 1270012 | ||
| FILA2_TS_DEWT_102019.nc | 27-Oct-2024 09:49 | 423381 | ||
| FILA2_TS_DEWT_102020.nc | 27-Oct-2024 09:49 | 429682 | ||
| FILA2_TS_DEWT_102021.nc | 27-Oct-2024 09:49 | 429658 | ||
| FILA2_TS_DEWT_102022.nc | 27-Oct-2024 09:49 | 429680 | ||
| FILA2_TS_DEWT_102023.nc | 27-Oct-2024 09:49 | 429682 | ||
| FILA2_TS_DEWT_102024.nc | 12-Jan-2025 22:34 | 429692 | ||
| FILA2_TS_DEWT_102025.nc | 01-Nov-2025 07:51 | 429700 | ||
| FILA2_TS_DEWT_112003.nc | 27-Oct-2024 09:49 | 450271 | ||
| FILA2_TS_DEWT_112004.nc | 27-Oct-2024 09:49 | 449040 | ||
| FILA2_TS_DEWT_112005.nc | 27-Oct-2024 09:49 | 451084 | ||
| FILA2_TS_DEWT_112006.nc | 27-Oct-2024 09:49 | 429668 | ||
| FILA2_TS_DEWT_112007.nc | 27-Oct-2024 09:49 | 429695 | ||
| FILA2_TS_DEWT_112008.nc | 27-Oct-2024 09:49 | 429689 | ||
| FILA2_TS_DEWT_112009.nc | 27-Oct-2024 09:49 | 429687 | ||
| FILA2_TS_DEWT_112010.nc | 27-Oct-2024 09:49 | 429694 | ||
| FILA2_TS_DEWT_112011.nc | 27-Oct-2024 09:49 | 427386 | ||
| FILA2_TS_DEWT_112012.nc | 27-Oct-2024 09:49 | 429689 | ||
| FILA2_TS_DEWT_112013.nc | 27-Oct-2024 09:49 | 429694 | ||
| FILA2_TS_DEWT_112014.nc | 27-Oct-2024 09:49 | 429695 | ||
| FILA2_TS_DEWT_112015.nc | 27-Oct-2024 09:49 | 429996 | ||
| FILA2_TS_DEWT_112016.nc | 27-Oct-2024 09:49 | 429912 | ||
| FILA2_TS_DEWT_112018.nc | 27-Oct-2024 09:50 | 429909 | ||
| FILA2_TS_DEWT_112019.nc | 27-Oct-2024 09:50 | 429923 | ||
| FILA2_TS_DEWT_112020.nc | 27-Oct-2024 09:50 | 429907 | ||
| FILA2_TS_DEWT_112021.nc | 27-Oct-2024 09:50 | 429889 | ||
| FILA2_TS_DEWT_112022.nc | 27-Oct-2024 09:50 | 429914 | ||
| FILA2_TS_DEWT_112023.nc | 27-Oct-2024 09:50 | 426195 | ||
| FILA2_TS_DEWT_112024.nc | 17-Jan-2025 04:08 | 429914 | ||
| FILA2_TS_DEWT_112025.nc | 01-Dec-2025 05:41 | 428788 | ||
| FILA2_TS_DEWT_122003.nc | 27-Oct-2024 09:50 | 429912 | ||
| FILA2_TS_DEWT_122004.nc | 27-Oct-2024 09:50 | 450791 | ||
| FILA2_TS_DEWT_122005.nc | 27-Oct-2024 09:50 | 451495 | ||
| FILA2_TS_DEWT_122006.nc | 27-Oct-2024 09:50 | 1161616 | ||
| FILA2_TS_DEWT_122007.nc | 27-Oct-2024 09:50 | 1260438 | ||
| FILA2_TS_DEWT_122008.nc | 27-Oct-2024 09:50 | 1262779 | ||
| FILA2_TS_DEWT_122011.nc | 27-Oct-2024 09:50 | 418875 | ||
| FILA2_TS_DEWT_122012.nc | 27-Oct-2024 09:50 | 4857770 | ||
| FILA2_TS_DEWT_122013.nc | 27-Oct-2024 09:50 | 3300863 | ||
| FILA2_TS_DEWT_122014.nc | 27-Oct-2024 09:51 | 428686 | ||
| FILA2_TS_DEWT_122015.nc | 27-Oct-2024 09:51 | 428683 | ||
| FILA2_TS_DEWT_122016.nc | 27-Oct-2024 09:51 | 428999 | ||
| FILA2_TS_DEWT_122017.nc | 27-Oct-2024 09:51 | 428679 | ||
| FILA2_TS_DEWT_122018.nc | 27-Oct-2024 09:51 | 428680 | ||
| FILA2_TS_DEWT_122019.nc | 27-Oct-2024 09:51 | 429041 | ||
| FILA2_TS_DEWT_122020.nc | 27-Oct-2024 09:51 | 448444 | ||
| FILA2_TS_DEWT_122021.nc | 27-Oct-2024 09:51 | 448468 | ||
| FILA2_TS_DEWT_122022.nc | 27-Oct-2024 09:51 | 430477 | ||
| FILA2_TS_DEWT_122023.nc | 27-Oct-2024 09:51 | 448724 | ||
| FILA2_TS_DEWT_122025.nc | 01-Jan-2026 06:57 | 446662 | ||